Location: Greenwich
(51.4790°N, 0.0090°E)
Time: 09:24:25
(UTC+01:00)

Explorer 7 - Pass Details

Date: 17 April 2024
Orbit: 467 x 625 km, 50.3° (Epoch: 28 May)

Event Time Altitude Azimuth Distance (km) Brightness Sun altitude
Rises 19:42:17 0° 279° (W) 2,854 13.4 1.9°
Reaches altitude 10° 19:45:41 10° 253° (WSW) 1,912 10.7 1.4°
Maximum altitude 19:47:46 13° 225° (SW) 1,682 9.7 1.1°
Drops below altitude 10° 19:49:48 10° 196° (SSW) 1,860 9.5 0.8°
Sets 19:53:02 0° 169° (SSE) 2,708 10.1 0.3°
